Theta_e
308 308 307 307 306 303 304 305 305 302 302 302 302 303 304 304 305 307 308 310 313 315 316 315 314 313 314 314 315 316 316 316 317 317 318 318 318 319
307 308 308 308 308 303 303 301 305 305 303 305 302 303 303 302 305 306 308 310 312 313 313 314 313 313 313 313 313 314 314 315 315 315 316 317 317 317
306 306 307 308 307 306 303 300 301 303 303 306 303 302 301 302 302 307 307 307 308 310 311 313 313 312 311 312 312 312 312 313 314 314 315 316 316 317
304 304 304 306 307 307 303 300 299 301 300 303 301 299 301 301 303 304 303 304 305 306 310 311 311 311 310 310 311 311 311 311 312 313 314 315 315 316
303 303 303 304 305 306 303 301 298 302 297 303 301 300 299 300 300 302 302 302 303 305 307 309 309 309 309 310 311 311 311 312 312 312 313 313 314 315
302 303 303 304 304 305 305 300 300 300 299 300 301 299 299 299 301 299 299 301 301 302 304 305 306 307 308 308 310 311 310 311 312 312 312 313 313 314
302 302 304 305 308 308 305 303 301 297 298 298 299 298 298 297 297 300 299 301 302 303 303 303 304 304 305 307 308 309 309 310 311 312 313 312 313 313
300 301 303 305 306 308 310 309 302 297 296 296 300 298 298 299 300 299 299 298 296 304 301 301 303 301 302 303 304 305 306 308 310 311 311 312 313 314
299 300 301 301 304 305 308 311 310 306 304 299 300 299 300 300 300 299 299 299 299 301 301 298 302 301 303 303 304 304 305 307 308 309 310 311 313 314
299 300 299 300 302 304 305 306 306 308 306 304 302 302 302 302 301 301 301 301 301 301 302 297 301 299 302 303 305 304 305 306 307 309 310 311 311 312
300 299 300 300 303 305 303 304 303 304 309 308 306 305 303 303 302 302 299 298 297 299 303 299 299 299 302 304 306 306 306 307 308 308 310 310 310 311
299 300 302 301 304 305 302 302 300 299 302 304 300 303 305 305 304 303 303 299 299 296 300 298 300 300 298 306 307 307 306 307 307 308 309 310 310 309
297 299 301 303 304 305 307 303 302 301 303 303 302 303 303 303 303 303 303 301 298 297 302 301 300 300 299 300 304 305 307 308 308 307 308 308 309 309
298 299 301 303 304 305 307 306 306 303 302 299 298 299 299 298 299 298 299 300 301 299 300 301 298 299 299 298 298 304 305 306 306 306 307 310 309 309
301 302 302 303 305 307 308 306 305 300 298 297 297 297 297 298 298 299 301 300 299 299 302 302 299 300 300 299 300 302 302 304 306 306 308 309 309 311
302 302 303 303 306 303 304 302 299 299 298 297 296 296 298 298 299 300 298 300 302 306 308 305 306 301 299 301 303 302 304 302 306 307 309 310 311 312
300 300 300 299 297 296 295 297 297 296 294 295 296 297 296 298 297 299 300 302 304 303 303 304 304 304 304 304 301 303 304 304 307 307 308 307 310 312
298 296 295 295 294 293 293 293 294 295 296 296 296 296 296 296 297 299 301 305 303 303 302 303 304 303 303 304 306 303 305 305 307 308 309 306 306 309
295 295 294 294 293 293 292 293 294 295 295 295 296 295 295 296 297 299 304 305 304 303 303 304 303 302 299 297 303 303 305 307 307 308 307 305 305 307
295 294 293 294 292 292 294 294 294 294 294 295 295 294 295 296 297 298 305 305 303 303 303 303 303 303 301 299 301 303 301 307 305 302 301 303 304 306
294 294 293 292 294 294 294 294 294 293 293 294 292 293 294 295 296 298 305 304 304 304 302 301 304 307 306 306 301 299 301 298 303 304 304 303 302 302
293 293 294 294 295 294 293 293 292 292 292 292 292 293 294 296 296 299 306 305 304 304 304 305 306 307 303 301 298 297 298 301 301 300 300 301 305 299
292 293 294 294 294 294 293 293 292 291 291 291 292 293 294 295 297 300 304 304 304 304 304 303 304 307 304 303 301 299 299 299 300 299 299 299 301 302
Wind_Speed
11 12 11 11 9 8 11 10 11 12 10 8 8 11 10 10 12 12 12 15 18 16 14 14 15 14 15 16 17 18 18 17 17 18 18 17 17 16
7 11 12 11 12 8 10 10 12 12 13 7 9 6 10 9 11 13 12 14 17 16 15 14 15 16 16 17 18 19 17 18 19 19 20 18 17 18
10 10 13 13 11 10 9 9 10 11 14 10 5 8 9 11 11 12 10 10 9 16 16 15 15 16 17 18 18 19 19 20 21 21 21 19 19 19
13 12 12 9 14 14 11 10 10 12 11 15 8 7 9 11 12 14 10 8 8 12 16 17 17 16 17 19 19 19 19 20 20 20 19 19 19 20
13 13 13 12 13 12 12 9 8 10 11 11 8 6 6 7 9 10 11 10 8 11 15 18 18 19 20 19 18 18 18 18 19 20 19 19 19 19
14 14 14 14 14 14 13 11 9 10 10 12 9 7 6 5 8 10 9 7 8 8 12 15 14 16 19 20 21 20 19 19 21 20 19 19 20 19
16 15 15 16 19 18 11 12 12 11 9 10 10 7 8 7 11 7 9 7 8 8 8 8 9 9 11 18 21 20 21 21 22 21 20 20 20 20
16 16 16 19 19 22 25 25 16 12 14 11 12 13 14 11 8 9 8 6 6 6 8 8 7 8 9 9 15 18 18 22 22 22 22 21 20 18
17 16 13 12 18 15 20 27 27 27 23 13 16 15 15 13 11 10 10 8 7 5 6 9 8 11 10 10 19 21 21 22 20 22 22 21 21 21
18 15 14 14 14 16 15 15 15 14 18 15 16 14 13 12 13 10 10 9 6 6 7 10 8 11 9 10 18 21 23 22 21 21 20 21 21 19
15 16 15 16 19 24 16 15 14 11 15 24 19 15 15 16 12 7 7 6 6 8 8 8 9 7 8 10 10 20 23 22 21 20 20 18 17 18
13 15 24 21 23 27 18 14 13 9 9 13 10 13 14 13 15 10 7 8 7 5 7 8 8 4 4 6 9 7 9 21 21 20 19 18 16 10
11 12 11 24 26 29 28 14 13 10 17 12 8 9 8 7 6 8 9 8 9 11 7 4 4 4 5 2 2 5 7 8 9 13 20 19 16 13
13 11 12 23 27 29 25 21 20 19 11 9 8 7 6 6 7 8 9 9 9 12 12 7 5 8 5 3 3 4 5 6 7 8 9 13 16 16
11 13 17 21 25 20 20 21 19 10 9 9 7 5 5 4 5 6 8 7 9 12 13 15 10 10 8 5 3 4 4 5 6 7 8 10 10 11
23 14 16 19 13 14 16 15 8 9 8 7 6 4 2 4 6 5 4 4 5 5 3 8 5 12 7 6 5 5 4 4 7 7 7 7 8 9
11 7 9 9 11 11 10 10 8 8 7 6 4 3 3 4 4 4 4 4 4 2 1 2 6 8 6 6 4 5 5 7 7 7 8 8 9 10
9 11 12 12 12 10 9 8 7 9 6 4 3 2 3 3 3 3 4 5 7 6 4 3 5 7 6 7 5 7 6 7 6 9 9 6 5 4
12 12 12 11 9 9 8 8 8 6 4 3 2 2 1 2 2 3 6 8 7 6 5 4 4 5 7 4 3 5 7 9 8 8 6 3 5 7
11 10 10 10 9 8 9 8 6 4 4 3 3 1 0 1 2 4 7 10 7 7 5 3 3 4 6 3 3 2 5 8 6 8 7 6 9 18
10 10 9 9 9 8 8 7 6 5 4 3 3 2 2 2 3 3 5 9 9 9 8 5 2 10 7 6 5 4 6 16 9 7 5 8 6 4
10 10 9 9 8 8 7 6 5 5 5 4 4 3 3 4 3 2 8 9 8 7 8 7 6 8 8 7 8 7 5 7 11 17 17 7 6 5
9 9 8 8 7 7 7 6 7 7 6 4 4 5 5 5 4 3 7 8 9 9 9 8 6 9 9 10 10 7 10 7 5 7 7 12 9 15
Wind_Direction
256 251 243 239 232 227 237 229 231 243 236 216 217 204 204 203 206 201 206 206 214 215 217 226 233 239 248 254 257 259 262 263 267 270 270 270 272 274
263 255 249 246 241 219 225 232 236 239 248 218 212 191 199 201 199 204 204 198 208 216 223 229 232 238 248 254 257 258 260 263 266 268 268 266 268 270
276 270 259 248 241 233 221 222 236 237 240 231 215 198 198 200 193 200 196 200 210 222 228 228 228 240 250 254 256 258 261 262 262 263 259 260 264 268
274 276 270 259 246 238 225 219 225 232 234 231 189 192 204 206 196 191 192 201 211 218 228 233 238 244 251 256 257 258 257 258 258 258 255 256 257 255
271 272 274 266 255 241 221 215 218 240 237 227 193 186 193 191 198 201 203 215 223 224 231 240 247 253 252 252 250 247 249 250 250 253 254 256 255 257
269 266 268 262 259 249 228 216 204 225 231 231 203 185 189 173 207 196 202 212 226 222 233 244 248 249 252 254 252 247 246 245 243 242 241 242 245 253
268 269 264 261 261 256 231 218 205 212 211 226 205 198 181 181 203 195 214 208 222 228 234 237 243 248 251 253 253 245 239 239 240 239 236 235 234 237
270 267 265 263 263 263 249 226 214 201 211 212 206 207 197 196 195 198 197 196 231 192 222 242 219 233 242 239 239 237 239 239 239 233 232 232 228 227
268 265 258 257 257 257 255 251 227 215 217 218 217 205 201 194 191 194 197 204 221 170 213 257 239 252 249 250 244 242 242 238 235 234 231 228 225 223
263 258 257 254 242 253 259 240 243 221 210 225 230 218 208 187 193 198 198 214 242 241 234 262 254 252 252 248 242 241 238 237 235 231 226 223 220 220
255 249 250 255 235 249 255 231 229 229 220 221 222 216 184 167 172 163 186 202 242 249 216 238 264 257 252 252 246 227 236 233 230 226 220 216 211 215
254 251 252 247 235 247 247 213 217 194 191 190 193 186 165 166 173 201 201 217 227 279 223 204 250 218 259 235 239 238 219 228 224 218 214 211 200 209
251 249 240 232 236 249 236 197 203 163 192 170 164 154 153 161 189 214 218 223 229 240 199 184 220 203 205 236 210 208 213 212 210 208 207 205 193 203
247 238 230 236 251 243 223 182 183 167 165 161 162 158 173 186 211 225 225 225 234 245 259 226 228 218 200 189 230 186 199 192 186 183 189 190 185 188
259 225 218 241 238 204 173 159 158 172 154 158 160 165 184 204 232 246 237 231 229 237 246 245 220 213 208 209 211 184 169 180 172 168 171 176 181 184
247 234 205 205 190 138 146 132 148 153 144 141 152 161 174 223 230 216 217 211 216 221 214 327 218 175 179 202 202 163 155 159 158 163 166 157 160 172
123 158 163 135 110 103 100 110 117 119 120 132 148 170 224 225 223 212 222 195 174 120 96 86 122 160 193 173 155 150 142 139 148 144 136 141 160 167
131 111 105 104 99 100 104 105 107 113 120 129 137 193 209 216 231 200 188 145 139 135 116 115 128 112 99 67 72 134 134 135 140 149 152 136 130 175
87 87 94 97 102 101 104 115 110 106 110 104 135 145 208 210 200 137 137 139 129 136 129 128 119 118 116 106 81 50 136 144 140 123 114 97 130 144
79 88 91 94 96 106 107 104 106 103 85 88 91 66 54 102 107 103 146 136 139 139 127 107 114 106 113 121 103 77 56 120 110 101 103 92 85 91
87 86 89 96 95 88 92 96 92 78 76 75 43 29 38 75 78 71 140 134 139 148 125 114 106 115 99 94 87 68 43 59 79 116 122 102 96 97
82 88 85 81 86 95 88 85 79 63 56 36 24 18 37 46 57 94 141 144 130 121 113 112 118 111 89 99 90 76 76 71 63 62 40 11 130 128
78 78 79 84 82 84 90 84 69 54 36 19 19 29 34 39 31 90 122 123 125 127 123 118 118 118 108 114 112 101 94 83 70 65 38 26 68 104